This demonstration page uses our WeatherBlox Daily Observations layout. Learn more.

38.88101, -77.10428

Hourly Observations for August 16, 2015

Temp ( °F °C ) Dew Point ( °F °C ) Humidity (%) Winds ( mph kmh ) Pressure ( in mb ) Visibility ( mi km ) Precip ( " mm )
12:52 am 00:52 Clear 73 22.8 63 17.2 71 71 SSW 5 7 30.16 1022 10 16.0934 0 0
1:52 am 01:52 Mostly Clear 71 21.7 64 17.8 79 79 SSW 6 9 30.16 1022 10 16.0934 0 0
2:52 am 02:52 Mostly Clear 71 21.7 63 17.2 76 76 SSW 6 9 30.15 1021 10 16.0934 0 0
3:52 am 03:52 Mostly Clear 70 21.1 63 17.2 79 79 SSW 5 7 30.14 1021 10 16.0934 0 0
4:52 am 04:52 Mostly Clear 70 21.1 63 17.2 79 79 Calm 30.14 1021 10 16.0934 0 0
5:52 am 05:52 Partly Cloudy 69 20.6 63 17.2 81 81 Calm 30.15 1021 10 16.0934 0 0
6:52 am 06:52 Partly Cloudy 69 20.6 63 17.2 81 81 SSW 5 7 30.15 1021 10 16.0934 0 0
7:46 am 07:46 Partly Cloudy 72 22 64 18 78 78 SSW 5 7 30.15 1021 10 16.0934 0 0
7:52 am 07:52 Partly Cloudy 72 22.2 65 18.3 79 79 SSW 3 6 30.16 1022 10 16.0934 0 0
8:52 am 08:52 Partly Cloudy 75 23.9 67 19.4 76 76 S 7 11 30.16 1022 10 16.0934 0 0
9:52 am 09:52 Partly Cloudy 77 25 67 19.4 71 71 SSE 5 7 30.16 1022 10 16.0934 0 0
10:52 am 10:52 Partly Cloudy 81 27.2 67 19.4 62 62 SSE 7 11 30.16 1022 10 16.0934 0 0
11:52 am 11:52 Partly Cloudy 85 29.4 69 20.6 59 59 SSE 7 11 30.16 1021 10 16.0934 0 0
12:52 pm 12:52 Partly Cloudy 88 31.1 68 20 52 52 S 9 15 30.15 1021 10 16.0934 0 0
1:52 pm 13:52 Partly Cloudy 89 31.7 64 17.8 43 43 S 9 15 30.14 1021 10 16.0934 0 0
2:52 pm 14:52 Partly Cloudy 92 33.3 59 15 33 33 S 7 11 30.12 1020 10 16.0934 0 0
3:52 pm 15:52 Partly Cloudy 93 33.9 56 13.3 29 29 S 7 11 30.11 1020 10 16.0934 0 0
4:52 pm 16:52 Partly Cloudy 92 33.3 63 17.2 38 38 S 9 15 30.09 1019 10 16.0934 0 0
5:52 pm 17:52 Partly Cloudy 89 31.7 68 20 50 50 S 14 22 30.09 1019 10 16.0934 0 0
6:52 pm 18:52 Mostly Sunny 87 30.6 65 18.3 48 48 S 12 19 30.09 1019 10 16.0934 0 0
7:52 pm 19:52 Mostly Sunny 84 28.9 64 17.8 51 51 S 12 19 30.09 1019 10 16.0934 0 0
8:52 pm 20:52 Mostly Clear 82 27.8 66 18.9 58 58 S 8 13 30.1 1019 10 16.0934 0 0
9:52 pm 21:52 Mostly Clear 80 26.7 65 18.3 60 60 S 10 17 30.12 1020 10 16.0934 0 0
10:52 pm 22:52 Mostly Clear 77 25 67 19.4 71 71 SSW 7 11 30.11 1020 10 16.0934 0 0
11:52 pm 23:52 Mostly Clear 77 25 66 18.9 69 69 SSW 7 11 30.12 1020 10 16.0934 0 0

Powered by AerisWeather